Weather reports worldwide

Advertisment
Marrakech, Morocco (60230): temperature & dewpoint: 14.02.2018 05:00:00 - 20.02.2018 05:00:00 (WET)Marrakech, Morocco (60230): wind speed: 14.02.2018 05:00:00 - 20.02.2018 05:00:00 (WET)Marrakech, Morocco (60230): wind direction: 14.02.2018 05:00:00 - 20.02.2018 05:00:00 (WET)Marrakech, Morocco (60230): reduced air pressure: 14.02.2018 05:00:00 - 20.02.2018 05:00:00 (WET)Marrakech, Morocco (60230): visibility: 14.02.2018 05:00:00 - 20.02.2018 05:00:00 (WET)
Date & Time tt [°C] td [°C] ff [km/h] ff [kn] dd ppp [hPa] vv [km]
20.02.2018 05:00:00 8,0 5,0 0 0 N - 8
20.02.2018 04:00:00 9,0 6,0 0 0 N - 7
20.02.2018 03:00:00 9,8 5,6 0 0 N 1014,3 9
20.02.2018 02:00:00 10,0 5,0 0 0 N - 10
20.02.2018 01:00:00 11,0 5,0 0 0 N - 10
20.02.2018 00:00:00 10,8 4,3 4 2 W 1014,7 10
19.02.2018 23:00:00 12,0 4,0 0 0 N - 10
19.02.2018 22:00:00 13,0 5,0 8 4 E - 10
19.02.2018 21:00:00 14,1 4,1 9 5 E 1015,1 10
19.02.2018 20:00:00 17,0 2,0 4 2 - - 10
19.02.2018 19:00:00 17,0 2,0 9 5 NNE - 10
19.02.2018 18:00:00 18,9 1,9 8 4 N 1012,9 10
19.02.2018 17:00:00 20,0 3,0 13 7 NNW - 10
19.02.2018 16:00:00 21,0 5,0 15 8 N - 10
19.02.2018 15:00:00 22,8 1,2 8 4 WNW 1011,8 10
19.02.2018 14:00:00 22,0 1,0 9 5 NW - 10
19.02.2018 13:00:00 22,0 0,0 5 3 NNW - 10
19.02.2018 12:00:00 20,5 1,9 5 3 N 1014,1 10
19.02.2018 11:00:00 19,0 4,0 5 3 E - 10
19.02.2018 10:00:00 16,0 5,0 5 3 E - 10
19.02.2018 09:00:00 12,8 4,5 4 2 E 1016,0 10
19.02.2018 08:00:00 9,0 4,0 2 1 NE - 10
19.02.2018 07:00:00 7,0 4,0 4 2 - - 10
19.02.2018 06:00:00 8,0 4,6 0 0 N 1016,4 10
19.02.2018 05:00:00 8,0 5,0 5 3 NNE - 10
19.02.2018 04:00:00 8,0 4,0 0 0 N - 10
19.02.2018 03:00:00 9,2 4,4 0 0 N 1016,2 9
19.02.2018 02:00:00 11,0 4,0 0 0 N - 9
19.02.2018 01:00:00 12,0 4,0 4 2 N - 10
19.02.2018 00:00:00 11,3 2,9 4 2 - 1016,8 10
18.02.2018 23:00:00 13,0 3,0 0 0 N - 10
18.02.2018 22:00:00 13,0 3,0 4 2 ENE - 6
18.02.2018 21:00:00 16,1 1,0 5 3 NE 1016,6 10
18.02.2018 20:00:00 16,0 1,0 0 0 N - 10
18.02.2018 19:00:00 18,0 2,0 4 2 NNE - 10
18.02.2018 18:00:00 19,8 0,8 5 3 NNE 1015,1 10
18.02.2018 17:00:00 22,0 1,0 4 2 - - 10
18.02.2018 16:00:00 22,0 3,0 5 3 NNE - 10
18.02.2018 15:00:00 22,0 1,6 2 1 NE 1014,4 10
18.02.2018 14:00:00 21,0 2,0 5 3 NNW - 10
18.02.2018 13:00:00 20,0 3,0 5 3 N - 10
18.02.2018 12:00:00 18,8 2,6 4 2 NW 1017,2 10
18.02.2018 11:00:00 17,0 4,0 5 3 NE - 8
18.02.2018 10:00:00 15,0 5,0 5 3 N - 8
18.02.2018 09:00:00 12,8 5,0 0 0 N 1019,3 8
18.02.2018 08:00:00 8,0 4,0 0 0 N - 8
18.02.2018 07:00:00 6,0 3,0 0 0 N - 8
18.02.2018 06:00:00 7,5 4,1 2 1 ESE 1019,5 10
18.02.2018 05:00:00 7,0 4,0 0 0 N - 10
18.02.2018 04:00:00 - - - - - - -
18.02.2018 03:00:00 7,4 3,7 0 0 N 1019,6 10
18.02.2018 02:00:00 9,0 5,0 0 0 N - 10
18.02.2018 01:00:00 10,0 5,0 0 0 N - 10
18.02.2018 00:00:00 10,1 5,3 5 3 E 1020,9 10
17.02.2018 23:00:00 11,0 5,0 0 0 N - 10
17.02.2018 22:00:00 12,0 6,0 4 2 ESE - 6
17.02.2018 21:00:00 12,9 4,3 0 0 N 1021,1 8
17.02.2018 20:00:00 14,0 4,0 5 3 NE - 10
17.02.2018 19:00:00 16,0 5,0 9 5 NNE - 10
17.02.2018 18:00:00 17,8 1,3 13 7 NNE 1019,1 10
17.02.2018 17:00:00 20,0 5,0 8 4 NNW - 10
17.02.2018 16:00:00 21,0 2,0 5 3 N - 10
17.02.2018 15:00:00 20,6 3,3 5 3 W 1018,7 10
17.02.2018 14:00:00 20,0 4,0 4 2 NE - 10
17.02.2018 13:00:00 19,0 5,0 11 6 SSW - 10
17.02.2018 12:00:00 17,3 4,9 9 5 NW 1021,8 8
17.02.2018 11:00:00 16,0 6,0 8 4 N - 8
17.02.2018 10:00:00 14,0 5,0 0 0 N - 8
17.02.2018 09:00:00 11,5 5,8 0 0 N 1023,6 6
17.02.2018 08:00:00 9,0 6,0 0 0 N - 6
17.02.2018 07:00:00 7,0 4,0 0 0 N - 8
17.02.2018 06:00:00 7,4 5,0 0 0 N 1023,9 9
17.02.2018 05:00:00 8,0 6,0 0 0 N - 8
17.02.2018 04:00:00 9,0 5,0 0 0 N - 10
17.02.2018 03:00:00 9,2 5,0 0 0 N 1023,9 10
17.02.2018 02:00:00 9,0 5,0 0 0 N - 10
17.02.2018 01:00:00 12,0 5,0 2 1 SE - 10
17.02.2018 00:00:00 13,1 4,5 9 5 SSW 1023,8 10
16.02.2018 23:00:00 13,0 4,0 0 0 N - 10
16.02.2018 22:00:00 14,0 5,0 0 0 N - 8
16.02.2018 21:00:00 15,1 3,3 0 0 N 1023,1 10
16.02.2018 20:00:00 16,0 3,0 13 7 S - 10
16.02.2018 19:00:00 18,0 -1,0 9 5 SSW - 10
16.02.2018 18:00:00 17,9 5,5 5 3 W 1021,1 10
16.02.2018 17:00:00 19,0 4,0 13 7 W - 10
16.02.2018 16:00:00 20,0 3,0 8 4 NW - 10
16.02.2018 15:00:00 20,7 3,0 9 5 NW 1019,8 10
16.02.2018 14:00:00 21,0 2,0 9 5 NNW - 10
16.02.2018 13:00:00 21,0 2,0 8 4 NW - 8
16.02.2018 12:00:00 21,6 1,3 0 0 N 1021,5 10
16.02.2018 11:00:00 19,0 2,0 0 0 N - 10
16.02.2018 10:00:00 17,0 2,0 4 2 - - 10
16.02.2018 09:00:00 13,6 7,2 0 0 N 1023,3 9
16.02.2018 08:00:00 12,0 7,0 2 1 WSW - 10
16.02.2018 07:00:00 13,0 5,0 8 4 S - 10
16.02.2018 06:00:00 11,6 6,1 0 0 N 1022,2 10
16.02.2018 05:00:00 12,0 6,0 4 2 ESE - 10
16.02.2018 04:00:00 12,0 7,0 0 0 N - 10
16.02.2018 03:00:00 12,2 6,3 0 0 N 1022,6 10
16.02.2018 02:00:00 13,0 6,0 4 2 WSW - 10
16.02.2018 01:00:00 13,0 5,0 4 2 - - 10
16.02.2018 00:00:00 13,2 5,4 0 0 N 1022,8 10
15.02.2018 23:00:00 14,0 3,0 0 0 N - 10
15.02.2018 22:00:00 14,0 3,0 4 2 WSW - 10
15.02.2018 21:00:00 15,1 3,3 5 3 SW 1023,1 10
15.02.2018 20:00:00 16,0 3,0 4 2 - - 9
15.02.2018 19:00:00 16,0 2,0 5 3 WSW - 9
15.02.2018 18:00:00 18,8 0,9 5 3 W 1021,3 10
15.02.2018 17:00:00 22,0 -1,0 5 3 NW - 10
15.02.2018 16:00:00 22,0 0,0 2 1 - - 10
15.02.2018 15:00:00 22,9 0,1 4 2 - 1020,3 10
15.02.2018 14:00:00 - - - - - - -
15.02.2018 13:00:00 21,0 -1,0 2 1 - - 10
15.02.2018 12:00:00 19,8 2,6 5 3 NNE 1021,9 10
15.02.2018 11:00:00 17,0 3,0 8 4 ENE - 10
15.02.2018 10:00:00 15,0 4,0 8 4 E - 10
15.02.2018 09:00:00 11,0 5,1 5 3 E 1024,0 10
15.02.2018 08:00:00 6,0 3,0 9 5 ENE - 10
15.02.2018 07:00:00 6,0 2,0 0 0 N - 10
15.02.2018 06:00:00 5,9 2,7 8 4 E 1024,0 10
15.02.2018 05:00:00 6,0 3,0 8 4 ENE - 10
15.02.2018 04:00:00 7,0 4,0 8 4 ENE - 10
15.02.2018 03:00:00 6,8 3,9 8 4 ENE 1023,7 9
15.02.2018 02:00:00 8,0 4,0 5 3 E - 10
15.02.2018 01:00:00 - - - - - - -
15.02.2018 00:00:00 11,0 4,2 0 0 N 1024,3 10
14.02.2018 23:00:00 11,0 5,0 4 2 ESE - 10
14.02.2018 22:00:00 12,0 4,0 8 4 E - 10
14.02.2018 21:00:00 13,5 3,6 8 4 E 1022,7 10
14.02.2018 20:00:00 15,0 4,0 8 4 NNE - 10
14.02.2018 19:00:00 18,0 2,0 8 4 N - 10
14.02.2018 18:00:00 19,3 0,8 8 4 NNW 1020,7 10
14.02.2018 17:00:00 21,0 1,0 5 3 NW - 10
14.02.2018 16:00:00 21,0 2,0 8 4 NNE - 10
14.02.2018 15:00:00 21,7 0,8 5 3 W 1020,1 10
14.02.2018 14:00:00 21,0 0,0 0 0 N - 10
14.02.2018 13:00:00 19,0 2,0 0 0 N - 10
14.02.2018 12:00:00 17,9 3,4 0 0 N 1022,1 10
14.02.2018 11:00:00 17,0 4,0 0 0 N - 10
14.02.2018 10:00:00 15,0 6,0 0 0 N - 10
14.02.2018 09:00:00 9,6 4,4 0 0 N 1024,0 10
14.02.2018 08:00:00 6,0 3,0 0 0 N - 10
14.02.2018 07:00:00 5,0 3,0 0 0 N - 10
14.02.2018 06:00:00 5,3 3,2 0 0 N 1023,7 6
14.02.2018 05:00:00 6,0 3,0 0 0 N - 9

tt = temperature
td = dewpoint
ff = wind speed
dd = wind direction
ppp = reduced air pressure
vv = visibility

Next stations